Overview Statistics Trail Chart Weather Telemetry Raw packets
 

This is the latest recevied weather packets stored in our database for station/object VK2EHQ. If no packets are shown the sender has not sent any weather packets the latest 10 day(s).

<< 1 2 3 4 5 6 7 >>
Time Temp. Humidity Pressure Rain* Wind** Luminosity Snow
1788534667 16.67° C 59% 1019 hPa 0 mm - - -
1788534068 16.67° C 59% 1019 hPa 0 mm - - -
1788533467 16.67° C 58% 1019.1 hPa 0 mm - - -
1788532867 16.67° C 58% 1019.2 hPa 0 mm - - -
1788532267 17.22° C 58% 1019.1 hPa 0 mm - - -
1788531667 17.22° C 58% 1019.1 hPa 0 mm - - -
1788531067 17.22° C 58% 1019.2 hPa 0 mm - - -
1788530467 17.22° C 58% 1019.1 hPa 0 mm - - -
1788529867 17.22° C 58% 1019.3 hPa 0 mm - - -
1788529267 16.67° C 60% 1019.4 hPa 0 mm - - -
1788528667 16.67° C 60% 1019.4 hPa 0 mm - - -
1788528066 17.22° C 60% 1019.6 hPa 0 mm - - -
1788527467 17.22° C 60% 1019.6 hPa 0 mm - - -
1788526867 17.22° C 61% 1019.6 hPa 0 mm - - -
1788526266 17.22° C 62% 1019.7 hPa 0 mm - - -
1788525666 17.22° C 61% 1019.7 hPa 0 mm - - -
1788525066 16.67° C 61% 1019.8 hPa 0 mm - - -
1788524466 16.67° C 62% 1019.9 hPa 0 mm - - -
1788523866 16.67° C 62% 1019.9 hPa 0 mm - - -
1788523266 16.67° C 64% 1020 hPa 0 mm - - -
1788522666 16.67° C 65% 1020 hPa 0 mm - - -
1788522066 16.11° C 67% 1020 hPa 0 mm - - -
1788519665 13.89° C 68% 1019.9 hPa 0 mm - - -
1788518465 14.44° C 68% 1019.5 hPa 0 mm - - -
1788517265 14.44° C 69% 1019.2 hPa 0 mm - - -

* Rain latest hour (hover to see other rain measurements)
** Current wind speed in m/s (hover to see current wind gust speed)